Regional Weather Roundup
Issued by NWS Charleston, SC

Current Version | Previous Version | Graphics & Text | Print | Product List | Glossary On
Versions: 1 2 3 4 5 6 7 8 9 10 11 12 13 14 15 16 17 18 19 20 21 22 23 24 25 26 27 28 29 30 31 32 33 34 35 36 37 38 39 40 41 42 43 44 45 46 47 48 49 50
000
ASUS42 KCHS 270012
RWRCHS

REGIONAL WEATHER ROUNDUP
NATIONAL WEATHER SERVICE CHARLESTON SC
800 PM EDT TUE MAY 26 2015

NOTE: "FAIR" INDICATES FEW OR NO CLOUDS BELOW 12,000 FEET WITH NO
SIGNIFICANT WEATHER AND/OR OBSTRUCTIONS TO VISIBILITY.

NOT ALL STATIONS ARE QUALITY CONTROLLED BY THE NATIONAL
WEATHER SERVICE. USE DATA WITH CAUTION...ESPECIALLY
DEWPOINT OBSERVATIONS.

SCZ027-030-031-034>040-042>050-270100-
...SOUTHEAST SOUTH CAROLINA...

CITY           SKY/WX    TMP DP  RH WIND       PRES   REMARKS
N CHARLESTON   MOCLDY    79  70  74 S13       30.22S
6HR MIN TEMP:  79; 6HR MAX TEMP:  88;

WATERFRONT PAR   N/A     78  75  90 SE12      30.20R
MOUNT PLEASANT FAIR      77  73  88 SE9       30.24R
JOHNS ISLAND   MOCLDY    79  73  83 S8        30.24R
PINOPOLIS        N/A     86  72  62 S7        30.15R HX  92
MONCKS CORNER  FAIR      81  70  69 S5        30.21S
SUMMERVILLE    FAIR      81  70  69 S3        30.22S
BEAUFORT MCAS  MOCLDY    80  72  76 SE7       30.21S
6HR MIN TEMP:  80; 6HR MAX TEMP:  89;

BEAUFORT ARPT  FAIR      79  72  78 SE6       30.22R
HILTON HEAD IS PTCLDY    79  72  78 SE6       30.23R
WALTERBORO     PTCLDY    77  68  73 SE7       30.21S
ALLENDALE      FAIR      82  68  61 SE9       30.18S

...SOUTHERN MIDLANDS AND PEE DEE...

CITY           SKY/WX    TMP DP  RH WIND       PRES   REMARKS
GEORGETOWN     NOT AVBL
KINGSTREE      NOT AVBL
ORANGEBURG     PTCLDY    81  66  60 S10       30.19R
6HR MIN TEMP:  81; 6HR MAX TEMP:  88;

BARNWELL       FAIR      82  70  65 SE9       30.18F
AIKEN          CLOUDY    72  68  88 N3        30.22F THUNDER
MANNING        FAIR      79  14   8 SE6       30.20R
COLUMBIA       CLOUDY    77  64  64 SE3       30.17F
6HR MIN TEMP:  75; 6HR MAX TEMP:  90; 6HR PCP: TRACE;

SUMTER         CLOUDY    83  67  59 S7        30.17S
6HR MIN TEMP:  83; 6HR MAX TEMP:  91;

FLORENCE       PTCLDY    81  69  67 SE10      30.20R
6HR MIN TEMP:  81; 6HR MAX TEMP:  92;

MYRTLE BEACH   MOCLDY    79  68  69 S14G21    30.25R
N MYRTLE BEACH CLOUDY    77  70  79 S13       30.24R
6HR MIN TEMP:  76; 6HR MAX TEMP:  81;


$$

GAZ063-065-086>088-099>101-113>116-118-119-134>141-150-270100-
...SOUTHEAST GEORGIA...

CITY           SKY/WX    TMP DP  RH WIND       PRES   REMARKS
SAVANNAH ARPT  CLOUDY    80  68  66 SE13      30.20S
6HR MIN TEMP:  80; 6HR MAX TEMP:  88;

HUNTER AAF     PTCLDY    79  72  80 SE9       30.18S
6HR MIN TEMP:  79; 6HR MAX TEMP:  87; 6HR PCP: TRACE;

FORT STEWART   NOT AVBL
STATESBORO     CLOUDY    80  73  77 S5        30.19R
SYLVANIA       CLOUDY    82  72  71 SE5       30.19F
CLAXTON        FAIR      79  72  78 SE3       30.19R

...CSRA...CENTRAL AND FAR SOUTHEAST GEORGIA...

CITY           SKY/WX    TMP DP  RH WIND       PRES   REMARKS
THOMSON        CLOUDY    73  68  83 W14G26    30.25S
AUGUSTA-BUSH   CLOUDY    79  73  82 CALM      30.14F
6HR MIN TEMP:  78; 6HR MAX TEMP:  90; 6HR PCP:  0.09;

AUGUSTA-DANIEL TSTM      74  67  78 W8G17     30.17S
SWAINSBORO     CLOUDY    77  70  78 NW22G29   30.21R THUNDER
VIDALIA        CLOUDY    82  68  61 S7        30.20R
EASTMAN        CLOUDY    71  71 100 SW3       30.28R THUNDER
HAZLEHURST     TSTM      70  69  98 NW7       30.23R
ALMA           TSTM      70  67  90 SW10G25   30.22R FOG
6HR MIN TEMP:  70; 6HR MAX TEMP:  92; 6HR PCP:  0.04;

WAYCROSS       TSTM      71  71  99 W3          N/A
JESUP          FAIR      82  72  69 SE5       30.21R
BAXLEY         FAIR      77  73  88 W10       30.20R THUNDER
BRUNSWICK      PTCLDY    81  70  69 SE9       30.22R
SAINT SIMONS   NOT AVBL

$$

SCZ027-028-034-036>038-045-046-048>050-GAZ119-141-270100-
...LAKE AND SUPPLEMENTAL COASTAL OBSERVATIONS...

STATION/POSITION TIME  TEMP    WIND        PRES    WAVE   SWELL
                       AIR SEA DIR/SP/G            HT/PER HT/PER/DIR
                 (UTC) (F)     (DEG/KT/KT) (MB)    (FT/S) (FT/S/D)
UPR LAKE MARION  NOT AVBL
WINYAH BAY       2245   76     150/ 12     1022.0
LAKE MURRAY      2300   76     140/ 10/ 15 1021.0R
ACE BASIN NERRS  NOT AVBL
FORT PULASKI     2300   80 79  140/  5/  8 1023.6R
SAPELO ISLAND    2300   83     140/  9     1022.0S

$$

ANZ835-935-AMZ111-154-330-350-352-354-370-450-454-472-270100-
...C-MAN AND BUOY OBSERVATIONS...

STATION/POSITION TIME  TEMP    WIND        PRES    WAVE   SWELL
                       AIR SEA DIR/SP/G            HT/PER HT/PER/DIR
                 (UTC) (F)     (DEG/KT/KT) (MB)    (FT/S) (FT/S/D)
BUOY 41004       2350   78 76  150/ 14/ 16 1023.5R   4/ 6   2/12
BUOY 41008       2350   79 79  140/ 10/ 12 1023.3R   2/ 7   2/ 90/ 7
FOLLY BEACH CMAN 0000   78     180/  9/ 10 1024.1R
CAPERS NEARSHORE 2308   76     150/ 10/ 14 1023.8R
FRIPP NEARSHORE  2300   78     160/  8/ 10 1022.8R


STATION/POSITION TIME  TEMP    WIND        PRES    WAVE   SWELL
                       AIR SEA DIR/SP/G            HT/PER HT/PER/DIR
                 (UTC) (F)     (DEG/KT/KT) (MB)    (FT/S) (FT/S/D)
5E ST. MARYS GA  2321      80                N/A     3/ 7
FRYING PAN BUOY  2350   77 75  160/ 12/ 14 1024.9R   4/ 6   2/120/ 7
BUOY 41025       2350   75 77  160/ 16/ 19 1025.0S   3/ 6   2/100/ 8
CAPE LOOKOUT NC  0000   74     170/ 15/ 16 1024.7R
BUOY 41002       2350   74 74  120/ 14/ 17 1025.7F   4/ 6   2/120/ 7
BUOY 41010       2320   78 81  100/ 16/ 17 1022.5F
ST AUGUSTINE FL  0000   78 81  130/ 15/ 16 1022.7F


$$



USA.gov is the U.S. government's official web portal to all federal, state and local government web resources and services.